Weather in Rogoziv

Ukraine / Kyiv Region     50°14′08″N   31°03′01″E
temp.,
°C
wind,
m/s
gust,
m/s
humid.,
%
clouds,
%
prec.,
mm/h
press.,
hPa
HPBL,
m
13 june, sun
sun1300:00+15wsw3587100 0.0 100973
03:00+14sw36915 0.0 1008108
06:00+14ssw3992100 0.0 1007204
09:00+19ssw5875100 0.0 1006486
12:00+20wsw6875100 3.0 1006794
15:00+19nw666671 4.4 10071024
18:00+18nnw586756 0.0 10081222
21:00+15nw3676100 0.0 1010175
14 june, mon
mon1400:00+15wnw2275100 0.0 101047
03:00+14nw2282100 0.1 101150
06:00+14n3588100 0.1 1012181
09:00+15nne4679100 0.1 1013511
12:00+19ne556675 0.0 10131064
15:00+21ne446978 0.0 10131148
18:00+20nne467933 0.3 1014333
21:00+17nne49894 0.7 1014182
15 june, tue
tue1500:00+15n499220 0.6 1015171
03:00+14n499731 0.8 1016215
06:00+14n489725 0.1 1016242
09:00+18n568342 0.1 1016497
12:00+22n457166 0.0 10151038
15:00+23n566742 0.1 10141230
18:00+23n57681 0.5 10131002
21:00+18n36842 0.7 1013107
16 june, wed
wed1600:00+16nnw4118829 0.0 1014219
03:00+14nnw4109110 0.0 1014210
06:00+14nnw49895 0.0 1014221
09:00+19n69714 0.0 1014594
12:00+22n68610 0.0 10141451
15:00+24nne78554 0.0 10142049
18:00+22n79723 0.3 1015974
21:00+19n613850 0.5 1016459
17 june, thu
thu1700:00+17n512919 0.0 1017346
03:00+15n512905 0.0 1017289
06:00+15n511895 0.0 1018285
09:00+19nne710724 0.0 1018525
12:00+23nne8106523 0.0 10181159
15:00+23ne8116519 0.2 10191486
18:00+22ne7117096 0.3 10201312
21:00+19ne5127362 0.3 1020643